| time (UTC) | temp F | wind direction | speed knots | gust knots | rain 1hr in | rain 24hr in | rain mn in | humidity % | barometer mb |
| 20260505230531 | 64 | 156 | 7.0 | 20.0 | 0.00 | 0.00 | 0.00 | 45 | 1012.1 |
| 20260505230048 | 64 | 262 | 4.3 | 15.6 | 0.00 | 0.00 | 0.00 | 46 | 1012.1 |
| 20260505225531 | 64 | 134 | 3.5 | 12.2 | 0.00 | 0.00 | 0.00 | 46 | 1012.2 |
| 20260505225031 | 64 | 205 | 2.6 | 14.8 | 0.00 | 0.00 | 0.00 | 47 | 1012.2 |
| 20260505224530 | 65 | 238 | 4.3 | 14.8 | 0.00 | 0.00 | 0.00 | 45 | 1012.0 |
| 20260505224030 | 65 | 165 | 7.0 | 13.9 | 0.00 | 0.00 | 0.00 | 45 | 1012.0 |
| 20260505223530 | 65 | 149 | 4.3 | 14.8 | 0.00 | 0.00 | 0.00 | 46 | 1011.9 |
| 20260505223029 | 65 | 175 | 8.7 | 14.8 | 0.00 | 0.00 | 0.00 | 45 | 1011.7 |
| 20260505222531 | 66 | 200 | 7.0 | 14.8 | 0.00 | 0.00 | 0.00 | 45 | 1011.7 |
| 20260505222029 | 66 | 155 | 4.3 | 10.4 | 0.00 | 0.00 | 0.00 | 45 | 1011.8 |
| 20260505221534 | 66 | 110 | 2.6 | 9.6 | 0.00 | 0.00 | 0.00 | 46 | 1011.9 |
| 20260505221028 | 66 | 139 | 4.3 | 13.0 | 0.00 | 0.00 | 0.00 | 45 | 1012.0 |
| 20260505220529 | 65 | 155 | 5.2 | 14.8 | 0.00 | 0.00 | 0.00 | 45 | 1011.9 |
| 20260505220030 | 66 | 229 | 5.2 | 13.9 | 0.00 | 0.00 | 0.00 | 44 | 1011.8 |
| 20260505215528 | 66 | 184 | 7.0 | 13.9 | 0.00 | 0.00 | 0.00 | 43 | 1011.5 |
| 20260505215027 | 66 | 150 | 5.2 | 12.2 | 0.00 | 0.00 | 0.00 | 43 | 1011.7 |
| 20260505214526 | 66 | 296 | 3.5 | 12.2 | 0.00 | 0.00 | 0.00 | 43 | 1011.8 |
| 20260505214026 | 66 | 221 | 0.9 | 12.2 | 0.00 | 0.00 | 0.00 | 44 | 1011.9 |
| 20260505213525 | 66 | 193 | 3.5 | 17.4 | 0.00 | 0.00 | 0.00 | 43 | 1012.0 |
| 20260505213028 | 66 | 154 | 7.8 | 17.4 | 0.00 | 0.00 | 0.00 | 42 | 1012.0 |
| 20260505212528 | 66 | 136 | 0.9 | 13.9 | 0.00 | 0.00 | 0.00 | 44 | 1011.9 |
| 20260505212025 | 66 | 206 | 4.3 | 13.9 | 0.00 | 0.00 | 0.00 | 42 | 1012.0 |
| 20260505211525 | 66 | 186 | 5.2 | 13.0 | 0.00 | 0.00 | 0.00 | 42 | 1012.0 |
| 20260505211023 | 66 | 150 | 4.3 | 21.7 | 0.00 | 0.00 | 0.00 | 43 | 1012.0 |
| 20260505210523 | 67 | 133 | 8.7 | 21.7 | 0.00 | 0.00 | 0.00 | 42 | 1012.3 |
| 20260505210023 | 67 | 183 | 6.1 | 17.4 | 0.00 | 0.00 | 0.00 | 42 | 1012.2 |
| 20260505205523 | 67 | 202 | 5.2 | 11.3 | 0.00 | 0.00 | 0.00 | 42 | 1012.2 |
| 20260505205023 | 67 | 129 | 3.5 | 14.8 | 0.00 | 0.00 | 0.00 | 41 | 1012.3 |
| 20260505204523 | 67 | 165 | 5.2 | 15.6 | 0.00 | 0.00 | 0.00 | 41 | 1012.1 |
| 20260505204025 | 67 | 213 | 6.1 | 14.8 | 0.00 | 0.00 | 0.00 | 41 | 1012.0 |
| 20260505203521 | 67 | 193 | 7.0 | 17.4 | 0.00 | 0.00 | 0.00 | 41 | 1012.2 |
| 20260505203027 | 68 | 177 | 9.6 | 17.4 | 0.00 | 0.00 | 0.00 | 40 | 1012.4 |
| 20260505202520 | 68 | 144 | 9.6 | 14.8 | 0.00 | 0.00 | 0.00 | 39 | 1012.5 |
| 20260505202020 | 68 | 171 | 5.2 | 14.8 | 0.00 | 0.00 | 0.00 | 39 | 1012.7 |
| 20260505201520 | 69 | 201 | 3.5 | 13.9 | 0.00 | 0.00 | 0.00 | 42 | 1012.4 |
| 20260505201019 | 68 | 188 | 6.1 | 13.9 | 0.00 | 0.00 | 0.00 | 41 | 1012.3 |
| 20260505200521 | 68 | 214 | 4.3 | 11.3 | 0.00 | 0.00 | 0.00 | 40 | 1012.3 |
| 20260505200030 | 68 | 167 | 4.3 | 12.2 | 0.00 | 0.00 | 0.00 | 41 | 1012.4 |
| 20260505195518 | 68 | 269 | 5.2 | 15.6 | 0.00 | 0.00 | 0.00 | 41 | 1012.7 |
| 20260505195017 | 68 | 198 | 5.2 | 12.2 | 0.00 | 0.00 | 0.00 | 42 | 1012.7 |
| 20260505194516 | 68 | 188 | 3.5 | 9.6 | 0.00 | 0.00 | 0.00 | 43 | 1012.7 |
| 20260505194016 | 68 | 155 | 3.5 | 10.4 | 0.00 | 0.00 | 0.00 | 42 | 1012.8 |
| 20260505193515 | 68 | 140 | 4.3 | 9.6 | 0.00 | 0.00 | 0.00 | 42 | 1012.7 |
| 20260505193015 | 68 | 211 | 5.2 | 12.2 | 0.00 | 0.00 | 0.00 | 42 | 1012.6 |
| 20260505192517 | 67 | 186 | 4.3 | 18.2 | 0.00 | 0.00 | 0.00 | 42 | 1012.6 |
| 20260505192014 | 67 | 115 | 7.8 | 18.2 | 0.00 | 0.00 | 0.00 | 42 | 1012.8 |
| 20260505191514 | 67 | 144 | 6.1 | 16.5 | 0.00 | 0.00 | 0.00 | 42 | 1012.9 |
| 20260505191012 | 67 | 160 | 7.0 | 13.9 | 0.00 | 0.00 | 0.00 | 42 | 1012.9 |
| 20260505190515 | 68 | 161 | 8.7 | 13.9 | 0.00 | 0.00 | 0.00 | 41 | 1012.8 |
| 20260505190014 | 68 | 156 | 4.3 | 12.2 | 0.00 | 0.00 | 0.00 | 42 | 1013.0 |
| 20260505185515 | 68 | 146 | 7.0 | 13.0 | 0.00 | 0.00 | 0.00 | 40 | 1013.0 |
| 20260505185011 | 68 | 124 | 5.2 | 17.4 | 0.00 | 0.00 | 0.00 | 42 | 1013.1 |
| 20260505184514 | 69 | 171 | 8.7 | 15.6 | 0.00 | 0.00 | 0.00 | 40 | 1013.4 |
| 20260505184011 | 69 | 188 | 5.2 | 10.4 | 0.00 | 0.00 | 0.00 | 39 | 1013.2 |
| 20260505183510 | 69 | 188 | 3.5 | 10.4 | 0.00 | 0.00 | 0.00 | 39 | 1013.2 |
| 20260505183009 | 69 | 148 | 3.5 | 16.5 | 0.00 | 0.00 | 0.00 | 40 | 1013.1 |
| 20260505182510 | 69 | 147 | 8.7 | 16.5 | 0.00 | 0.00 | 0.00 | 37 | 1013.3 |
| 20260505182009 | 69 | 223 | 5.2 | 16.5 | 0.00 | 0.00 | 0.00 | 37 | 1013.5 |
| 20260505181509 | 69 | 158 | 4.3 | 15.6 | 0.00 | 0.00 | 0.00 | 39 | 1013.5 |
| 20260505181008 | 69 | 122 | 2.6 | 12.2 | 0.00 | 0.00 | 0.00 | 39 | 1013.7 |
| 20260505180510 | 68 | 145 | 3.5 | 12.2 | 0.00 | 0.00 | 0.00 | 40 | 1013.5 |
| 20260505180008 | 68 | 148 | 6.1 | 13.0 | 0.00 | 0.00 | 0.00 | 39 | 1013.7 |
| 20260505175507 | 68 | 135 | 6.1 | 13.0 | 0.00 | 0.00 | 0.00 | 39 | 1013.8 |
| 20260505175007 | 68 | 143 | 7.0 | 14.8 | 0.00 | 0.00 | 0.00 | 39 | 1013.7 |
| 20260505174511 | 67 | 132 | 5.2 | 15.6 | 0.00 | 0.00 | 0.00 | 41 | 1013.9 |
| 20260505174007 | 67 | 130 | 7.0 | 15.6 | 0.00 | 0.00 | 0.00 | 41 | 1013.8 |
| 20260505173509 | 66 | 125 | 4.3 | 13.0 | 0.00 | 0.00 | 0.00 | 43 | 1013.7 |
| 20260505173018 | 67 | 139 | 4.3 | 13.0 | 0.00 | 0.00 | 0.00 | 42 | 1013.8 |
| 20260505172507 | 67 | 110 | 3.5 | 11.3 | 0.00 | 0.00 | 0.00 | 44 | 1013.7 |
| 20260505172006 | 67 | 222 | 3.5 | 10.4 | 0.00 | 0.00 | 0.00 | 45 | 1013.7 |
| 20260505171506 | 66 | 123 | 5.2 | 12.2 | 0.00 | 0.00 | 0.00 | 45 | 1013.6 |
| 20260505171010 | 66 | 134 | 6.1 | 12.2 | 0.00 | 0.00 | 0.00 | 46 | 1013.7 |
| 20260505170504 | 66 | 160 | 5.2 | 13.0 | 0.00 | 0.00 | 0.00 | 46 | 1013.8 |
| 20260505170006 | 66 | 135 | 7.0 | 12.2 | 0.00 | 0.00 | 0.00 | 47 | 1013.9 |
| 20260505165505 | 66 | 156 | 6.1 | 13.0 | 0.00 | 0.00 | 0.00 | 47 | 1013.7 |
| 20260505165005 | 66 | 94 | 7.0 | 13.0 | 0.00 | 0.00 | 0.00 | 45 | 1014.0 |
| 20260505164510 | 66 | 123 | 5.2 | 10.4 | 0.00 | 0.00 | 0.00 | 48 | 1014.0 |
| 20260505164005 | 65 | 157 | 4.3 | 8.7 | 0.00 | 0.00 | 0.00 | 48 | 1014.1 |
| 20260505163504 | 65 | 152 | 3.5 | 8.7 | 0.00 | 0.00 | 0.00 | 48 | 1014.2 |
| 20260505163011 | 66 | 161 | 3.5 | 8.7 | 0.00 | 0.00 | 0.00 | 50 | 1014.4 |
| 20260505162504 | 65 | 136 | 3.5 | 11.3 | 0.00 | 0.00 | 0.00 | 50 | 1014.5 |
| 20260505162003 | 65 | 131 | 6.1 | 11.3 | 0.00 | 0.00 | 0.00 | 50 | 1014.7 |
| 20260505161505 | 65 | 243 | 3.5 | 7.8 | 0.00 | 0.00 | 0.00 | 50 | 1014.6 |
| 20260505161002 | 65 | 152 | 5.2 | 8.7 | 0.00 | 0.00 | 0.00 | 49 | 1014.6 |
| 20260505160503 | 65 | 172 | 5.2 | 8.7 | 0.00 | 0.00 | 0.00 | 50 | 1014.7 |
| 20260505153117 | 68 | 108 | 1.7 | 7.0 | 0.00 | 0.00 | 0.00 | 45 | 1014.7 |
| 20260505152601 | 67 | 177 | 3.5 | 7.0 | 0.00 | 0.00 | 0.00 | 44 | 1014.7 |
| 20260505152101 | 68 | 143 | 1.7 | 5.2 | 0.00 | 0.00 | 0.00 | 44 | 1014.7 |
| 20260505151605 | 68 | 137 | 2.6 | 5.2 | 0.00 | 0.00 | 0.00 | 43 | 1014.8 |
| 20260505151059 | 68 | 147 | 3.5 | 7.0 | 0.00 | 0.00 | 0.00 | 43 | 1014.8 |
| 20260505150600 | 70 | 139 | 2.6 | 5.2 | 0.00 | 0.00 | 0.00 | 37 | 1014.7 |
| 20260505140551 | 65 | 198 | 1.7 | 6.1 | 0.00 | 0.00 | 0.00 | 44 | 1014.7 |
| 20260505125040 | 60 | 107 | 0.0 | 0.9 | 0.00 | 0.00 | 0.00 | 61 | 1014.7 |
| 20260505124538 | 58 | 107 | 0.0 | 0.9 | 0.00 | 0.00 | 0.00 | 64 | 1014.7 |
| 20260505124034 | 57 | 107 | 0.0 | 0.9 | 0.00 | 0.00 | 0.00 | 65 | 1014.7 |
| 20260505123535 | 56 | 107 | 0.0 | 0.9 | 0.00 | 0.00 | 0.00 | 64 | 1014.7 |
| 20260505123034 | 55 | 107 | 0.0 | 0.9 | 0.00 | 0.00 | 0.00 | 66 | 1014.8 |
| 20260505122537 | 55 | 107 | 0.0 | 0.0 | 0.00 | 0.00 | 0.00 | 65 | 1014.9 |
| 20260505122037 | 55 | 107 | 0.0 | 0.0 | 0.00 | 0.00 | 0.00 | 68 | 1014.9 |
| 20260505121537 | 53 | 107 | 0.0 | 0.0 | 0.00 | 0.00 | 0.00 | 70 | 1014.8 |
| 20260505121033 | 52 | 107 | 0.0 | 0.0 | 0.00 | 0.00 | 0.00 | 73 | 1014.9 |
| 20260505120531 | 51 | 107 | 0.0 | 0.0 | 0.00 | 0.00 | 0.00 | 75 | 1014.8 |
| 20260505120032 | 49 | 107 | 0.0 | 0.0 | 0.00 | 0.00 | 0.00 | 79 | 1014.7 |
| 20260505115530 | 47 | 107 | 0.0 | 0.9 | 0.00 | 0.00 | 0.00 | 81 | 1014.6 |
| 20260505115033 | 46 | 107 | 0.0 | 0.9 | 0.00 | 0.00 | 0.00 | 83 | 1014.4 |
| 20260505114537 | 46 | 107 | 0.0 | 0.9 | 0.00 | 0.00 | 0.00 | 84 | 1014.5 |
| 20260505114030 | 45 | 107 | 0.0 | 0.9 | 0.00 | 0.00 | 0.00 | 86 | 1014.4 |
| 20260505113529 | 44 | 107 | 0.0 | 0.9 | 0.00 | 0.00 | 0.00 | 86 | 1014.5 |
| 20260505113028 | 44 | 107 | 0.0 | 0.9 | 0.00 | 0.00 | 0.00 | 86 | 1014.4 |
| 20260505112528 | 44 | 107 | 0.0 | 0.9 | 0.00 | 0.00 | 0.00 | 86 | 1014.4 |
| 20260505112028 | 44 | 107 | 0.0 | 0.9 | 0.00 | 0.00 | 0.00 | 87 | 1014.3 |
| 20260505111534 | 44 | 105 | 0.0 | 0.0 | 0.00 | 0.00 | 0.00 | 86 | 1014.3 |
| 20260505111027 | 44 | 105 | 0.0 | 0.0 | 0.00 | 0.00 | 0.00 | 86 | 1014.4 |
| 20260505110529 | 44 | 105 | 0.0 | 0.0 | 0.00 | 0.00 | 0.00 | 85 | 1014.3 |
| 20260505102019 | 45 | 105 | 0.0 | 0.9 | 0.00 | 0.00 | 0.00 | 81 | 1014.0 |
| 20260505101518 | 46 | 105 | 0.0 | 0.9 | 0.00 | 0.00 | 0.00 | 80 | 1014.0 |
| 20260505101015 | 47 | 105 | 0.0 | 0.9 | 0.00 | 0.00 | 0.00 | 78 | 1014.0 |
| 20260505100514 | 48 | 105 | 0.0 | 0.9 | 0.00 | 0.00 | 0.00 | 76 | 1014.0 |
| 20260505100014 | 48 | 105 | 0.0 | 1.7 | 0.00 | 0.00 | 0.00 | 75 | 1014.0 |
| 20260505095515 | 48 | 105 | 0.0 | 1.7 | 0.00 | 0.00 | 0.00 | 76 | 1014.0 |
| 20260505095012 | 48 | 131 | 0.9 | 1.7 | 0.00 | 0.00 | 0.00 | 75 | 1014.1 |
| 20260505094511 | 49 | 99 | 0.0 | 1.7 | 0.00 | 0.00 | 0.00 | 74 | 1014.0 |
| 20260505094014 | 49 | 113 | 0.0 | 1.7 | 0.00 | 0.00 | 0.00 | 74 | 1013.9 |
| 20260505093509 | 49 | 115 | 0.0 | 1.7 | 0.00 | 0.00 | 0.00 | 74 | 1013.9 |
| 20260505093008 | 50 | 122 | 0.0 | 1.7 | 0.00 | 0.00 | 0.00 | 72 | 1014.0 |
| 20260505092509 | 50 | 109 | 0.0 | 2.6 | 0.00 | 0.00 | 0.00 | 71 | 1014.0 |
| 20260505092008 | 50 | 120 | 0.9 | 2.6 | 0.00 | 0.00 | 0.00 | 72 | 1014.0 |
| 20260505091508 | 49 | 123 | 0.0 | 1.7 | 0.00 | 0.00 | 0.00 | 72 | 1013.9 |
| 20260505091006 | 50 | 146 | 0.0 | 3.5 | 0.00 | 0.00 | 0.00 | 70 | 1013.9 |
| 20260505090505 | 51 | 221 | 0.9 | 3.5 | 0.00 | 0.00 | 0.00 | 69 | 1013.9 |
| 20260505090003 | 52 | 209 | 0.9 | 4.3 | 0.00 | 0.00 | 0.00 | 66 | 1013.9 |
| 20260505085502 | 53 | 237 | 0.9 | 5.2 | 0.00 | 0.00 | 0.00 | 63 | 1013.8 |
| 20260505085105 | 54 | 271 | 0.9 | 5.2 | 0.00 | 0.00 | 0.00 | 62 | 1013.7 |
| 20260505084600 | 54 | 250 | 0.0 | 7.0 | 0.00 | 0.00 | 0.00 | 61 | 1013.6 |
| 20260505084102 | 55 | 264 | 2.6 | 7.0 | 0.00 | 0.00 | 0.00 | 60 | 1013.7 |
| 20260505083559 | 55 | 210 | 1.7 | 7.0 | 0.00 | 0.00 | 0.00 | 60 | 1013.7 |
| 20260505083100 | 55 | 254 | 1.7 | 7.8 | 0.00 | 0.00 | 0.00 | 60 | 1013.7 |
| 20260505082559 | 55 | 248 | 1.7 | 7.8 | 0.00 | 0.00 | 0.00 | 60 | 1013.7 |
| 20260505082058 | 55 | 236 | 1.7 | 7.8 | 0.00 | 0.00 | 0.00 | 59 | 1013.6 |
| 20260505081603 | 55 | 266 | 1.7 | 5.2 | 0.00 | 0.00 | 0.00 | 60 | 1013.6 |
| 20260505081058 | 55 | 235 | 0.9 | 5.2 | 0.00 | 0.00 | 0.00 | 60 | 1013.5 |
| 20260505080556 | 55 | 133 | 1.7 | 6.1 | 0.00 | 0.00 | 0.00 | 61 | 1013.6 |
| 20260505080058 | 55 | 210 | 0.9 | 6.1 | 0.00 | 0.00 | 0.00 | 61 | 1013.6 |
| 20260505075600 | 54 | 266 | 0.9 | 3.5 | 0.00 | 0.00 | 0.00 | 62 | 1013.6 |
| 20260505075056 | 54 | 303 | 0.0 | 4.3 | 0.00 | 0.00 | 0.00 | 62 | 1013.6 |
| 20260505074610 | 54 | 229 | 0.9 | 4.3 | 0.00 | 0.00 | 0.00 | 61 | 1013.5 |
| 20260505074055 | 55 | 221 | 0.0 | 2.6 | 0.00 | 0.00 | 0.00 | 61 | 1013.5 |
| 20260505073555 | 55 | 274 | 0.9 | 3.5 | 0.00 | 0.00 | 0.00 | 61 | 1013.3 |
| 20260505073055 | 55 | 238 | 0.9 | 4.3 | 0.00 | 0.00 | 0.00 | 60 | 1013.3 |
| 20260505072552 | 55 | 113 | 0.9 | 6.1 | 0.00 | 0.00 | 0.00 | 60 | 1013.3 |
| 20260505072052 | 56 | 217 | 2.6 | 6.1 | 0.00 | 0.00 | 0.00 | 59 | 1013.2 |
| 20260505071551 | 56 | 237 | 1.7 | 5.2 | 0.00 | 0.00 | 0.00 | 59 | 1013.2 |
| 20260505071051 | 56 | 231 | 1.7 | 5.2 | 0.00 | 0.00 | 0.00 | 59 | 1013.3 |
| 20260505070550 | 56 | 248 | 2.6 | 7.0 | 0.00 | 0.00 | 0.00 | 59 | 1013.3 |
| 20260505070049 | 56 | 203 | 2.6 | 7.8 | 0.00 | 0.00 | 0.00 | 59 | 1013.5 |
| 20260505065548 | 56 | 216 | 2.6 | 7.8 | 0.00 | 0.00 | 0.00 | 59 | 1013.4 |
| 20260505065048 | 56 | 207 | 2.6 | 6.1 | 0.00 | 0.00 | 0.00 | 59 | 1013.4 |
| 20260505064546 | 56 | 212 | 2.6 | 7.8 | 0.00 | 0.00 | 0.00 | 58 | 1013.5 |
| 20260505064045 | 57 | 207 | 4.3 | 7.8 | 0.00 | 0.00 | 0.00 | 58 | 1013.5 |
| 20260505063544 | 57 | 205 | 4.3 | 7.8 | 0.00 | 0.00 | 0.00 | 57 | 1013.5 |
| 20260505063044 | 57 | 176 | 3.5 | 7.0 | 0.00 | 0.00 | 0.00 | 57 | 1013.6 |
| 20260505062543 | 57 | 226 | 2.6 | 7.0 | 0.00 | 0.00 | 0.00 | 57 | 1013.7 |
| 20260505062042 | 57 | 141 | 1.7 | 5.2 | 0.00 | 0.00 | 0.00 | 57 | 1013.6 |
| 20260505061606 | 57 | 195 | 1.7 | 7.0 | 0.00 | 0.00 | 0.00 | 57 | 1013.7 |
| 20260505061040 | 57 | 212 | 1.7 | 9.6 | 0.00 | 0.00 | 0.00 | 56 | 1013.7 |
| 20260505060541 | 57 | 205 | 2.6 | 9.6 | 0.00 | 0.00 | 0.00 | 56 | 1013.6 |
| 20260505060044 | 57 | 231 | 0.9 | 10.4 | 0.00 | 0.00 | 0.00 | 56 | 1013.8 |
| 20260505055538 | 58 | 226 | 0.9 | 10.4 | 0.00 | 0.00 | 0.00 | 55 | 1013.7 |
| 20260505055040 | 58 | 275 | 0.9 | 9.6 | 0.00 | 0.00 | 0.00 | 55 | 1013.8 |
| 20260505054541 | 58 | 96 | 3.5 | 9.6 | 0.00 | 0.00 | 0.00 | 55 | 1013.7 |
| 20260505054039 | 58 | 182 | 4.3 | 9.6 | 0.00 | 0.00 | 0.00 | 55 | 1013.9 |
| 20260505053535 | 58 | 231 | 1.7 | 7.0 | 0.00 | 0.00 | 0.00 | 55 | 1013.8 |
| 20260505053034 | 58 | 248 | 0.0 | 7.0 | 0.00 | 0.00 | 0.00 | 55 | 1013.8 |
| 20260505052535 | 58 | 234 | 1.7 | 7.8 | 0.00 | 0.00 | 0.00 | 54 | 1013.8 |
| 20260505052035 | 58 | 204 | 1.7 | 10.4 | 0.00 | 0.00 | 0.00 | 54 | 1013.9 |
| 20260505051535 | 58 | 145 | 3.5 | 10.4 | 0.00 | 0.00 | 0.00 | 54 | 1013.9 |
| 20260505051034 | 58 | 209 | 4.3 | 10.4 | 0.00 | 0.00 | 0.00 | 55 | 1013.9 |
| 20260505050532 | 58 | 181 | 4.3 | 14.8 | 0.00 | 0.00 | 0.00 | 54 | 1013.9 |
| 20260505041527 | 58 | 227 | 5.2 | 13.9 | 0.00 | 0.00 | 0.00 | 52 | 1013.9 |
| 20260505041026 | 59 | 149 | 5.2 | 13.0 | 0.00 | 0.00 | 0.00 | 52 | 1013.9 |
| 20260505040525 | 59 | 192 | 5.2 | 15.6 | 0.00 | 0.00 | 0.00 | 52 | 1013.8 |
| 20260505040024 | 59 | 191 | 7.8 | 15.6 | 0.00 | 0.00 | 0.00 | 52 | 1014.0 |
| 20260505035523 | 59 | 174 | 6.1 | 14.8 | 0.00 | 0.00 | 0.00 | 51 | 1014.1 |
| 20260505035023 | 59 | 207 | 6.1 | 12.2 | 0.00 | 0.00 | 0.00 | 51 | 1014.1 |
| 20260505034523 | 58 | 198 | 4.3 | 13.0 | 0.00 | 0.00 | 0.00 | 51 | 1014.3 |
| 20260505034023 | 59 | 184 | 5.2 | 17.4 | 0.00 | 0.00 | 0.00 | 51 | 1014.3 |
| 20260505033526 | 58 | 134 | 7.0 | 17.4 | 0.00 | 0.00 | 0.00 | 51 | 1014.3 |
| 20260505033033 | 58 | 171 | 3.5 | 11.3 | 0.00 | 0.00 | 0.00 | 50 | 1014.3 |
| 20260505032522 | 59 | 150 | 4.3 | 12.2 | 0.00 | 0.00 | 0.00 | 50 | 1014.4 |
| 20260505032023 | 58 | 202 | 7.0 | 12.2 | 0.00 | 0.00 | 0.00 | 50 | 1014.5 |
| 20260505031523 | 58 | 237 | 3.5 | 8.7 | 0.00 | 0.00 | 0.00 | 50 | 1014.5 |
| 20260505031022 | 59 | 193 | 0.9 | 8.7 | 0.00 | 0.00 | 0.00 | 49 | 1014.6 |
| 20260505030521 | 59 | 167 | 1.7 | 7.8 | 0.00 | 0.00 | 0.00 | 49 | 1014.7 |
| 20260505030021 | 59 | 207 | 3.5 | 14.8 | 0.00 | 0.00 | 0.00 | 48 | 1014.8 |
| 20260505025525 | 59 | 189 | 6.1 | 14.8 | 0.00 | 0.00 | 0.00 | 48 | 1014.8 |
| 20260505025021 | 59 | 209 | 0.9 | 9.6 | 0.00 | 0.00 | 0.00 | 48 | 1015.0 |
| 20260505024546 | 59 | 203 | 3.5 | 9.6 | 0.00 | 0.00 | 0.00 | 48 | 1014.9 |
| 20260505024020 | 59 | 159 | 2.6 | 9.6 | 0.00 | 0.00 | 0.00 | 48 | 1014.9 |
| 20260505023520 | 59 | 264 | 1.7 | 5.2 | 0.00 | 0.00 | 0.00 | 48 | 1014.9 |
| 20260505023020 | 59 | 110 | 1.7 | 8.7 | 0.00 | 0.00 | 0.00 | 47 | 1014.9 |
| 20260505022520 | 59 | 193 | 4.3 | 8.7 | 0.00 | 0.00 | 0.00 | 47 | 1014.8 |
| 20260505022020 | 59 | 234 | 1.7 | 7.8 | 0.00 | 0.00 | 0.00 | 47 | 1014.8 |
| 20260505021538 | 59 | 213 | 1.7 | 10.4 | 0.00 | 0.00 | 0.00 | 47 | 1014.9 |
| 20260505021019 | 59 | 198 | 1.7 | 9.6 | 0.00 | 0.00 | 0.00 | 46 | 1014.9 |
| 20260505020622 | 60 | 165 | 1.7 | 10.4 | 0.00 | 0.00 | 0.00 | 46 | 1014.9 |
| 20260505020019 | 60 | 165 | 3.5 | 10.4 | 0.00 | 0.00 | 0.00 | 46 | 1014.8 |
| 20260505015521 | 59 | 193 | 1.7 | 8.7 | 0.00 | 0.00 | 0.00 | 46 | 1014.8 |
| 20260505015019 | 59 | 143 | 2.6 | 8.7 | 0.00 | 0.00 | 0.00 | 45 | 1014.9 |
| 20260505014523 | 60 | 207 | 1.7 | 7.0 | 0.00 | 0.00 | 0.00 | 45 | 1014.9 |
| 20260505014019 | 60 | 86 | 1.7 | 7.0 | 0.00 | 0.00 | 0.00 | 45 | 1014.7 |
| 20260505013518 | 60 | 208 | 0.9 | 5.2 | 0.00 | 0.00 | 0.00 | 45 | 1014.7 |
| 20260505013018 | 60 | 163 | 0.9 | 5.2 | 0.00 | 0.00 | 0.00 | 45 | 1014.7 |
| 20260505012519 | 60 | 171 | 1.7 | 7.8 | 0.00 | 0.00 | 0.00 | 45 | 1014.6 |
| 20260505012017 | 60 | 182 | 1.7 | 8.7 | 0.00 | 0.00 | 0.00 | 45 | 1014.6 |
| 20260505011518 | 60 | 218 | 2.6 | 7.8 | 0.00 | 0.00 | 0.00 | 45 | 1014.6 |
| 20260505011017 | 60 | 176 | 1.7 | 7.0 | 0.00 | 0.00 | 0.00 | 45 | 1014.6 |
| 20260505010516 | 60 | 127 | 2.6 | 13.0 | 0.00 | 0.00 | 0.00 | 45 | 1014.6 |
| 20260505010016 | 60 | 214 | 5.2 | 13.0 | 0.00 | 0.00 | 0.00 | 45 | 1014.5 |
| 20260505005516 | 60 | 203 | 1.7 | 5.2 | 0.00 | 0.00 | 0.00 | 46 | 1014.5 |
| 20260505005016 | 61 | 238 | 1.7 | 6.1 | 0.00 | 0.00 | 0.00 | 47 | 1014.5 |
| 20260505004524 | 61 | 145 | 2.6 | 7.0 | 0.00 | 0.00 | 0.00 | 47 | 1014.4 |
| 20260505004015 | 61 | 133 | 0.9 | 7.0 | 0.00 | 0.00 | 0.00 | 48 | 1014.4 |
| 20260505003616 | 61 | 188 | 3.5 | 7.8 | 0.00 | 0.00 | 0.00 | 47 | 1014.3 |
| 20260505003015 | 62 | 195 | 1.7 | 6.1 | 0.00 | 0.00 | 0.00 | 47 | 1014.2 |
| 20260505002515 | 62 | 95 | 2.6 | 7.0 | 0.00 | 0.00 | 0.00 | 47 | 1014.1 |
| 20260505002015 | 62 | 170 | 1.7 | 7.0 | 0.00 | 0.00 | 0.00 | 47 | 1014.1 |
| 20260505001515 | 62 | 153 | 2.6 | 7.8 | 0.00 | 0.00 | 0.00 | 46 | 1014.1 |
| 20260505001017 | 63 | 169 | 1.7 | 5.2 | 0.00 | 0.00 | 0.00 | 46 | 1014.1 |
| 20260505000513 | 63 | 113 | 1.7 | 9.6 | 0.00 | 0.00 | 0.00 | 45 | 1014.2 |
| 20260505000014 | 63 | 120 | 2.6 | 9.6 | 0.00 | 0.00 | 0.00 | 45 | 1014.1 |
| 20260504235513 | 64 | 217 | 4.3 | 9.6 | 0.00 | 0.00 | 0.00 | 44 | 1014.0 |
| 20260504235017 | 64 | 205 | 4.3 | 8.7 | 0.00 | 0.00 | 0.00 | 44 | 1014.0 |
| 20260504234517 | 64 | 180 | 4.3 | 9.6 | 0.00 | 0.00 | 0.00 | 44 | 1013.9 |
| 20260504234016 | 64 | 131 | 4.3 | 9.6 | 0.00 | 0.00 | 0.00 | 44 | 1013.9 |
| 20260504233513 | 65 | 126 | 2.6 | 8.7 | 0.00 | 0.00 | 0.00 | 44 | 1013.8 |
| 20260504233013 | 65 | 136 | 3.5 | 8.7 | 0.00 | 0.00 | 0.00 | 43 | 1013.9 |
| 20260504232513 | 65 | 168 | 3.5 | 8.7 | 0.00 | 0.00 | 0.00 | 44 | 1013.8 |
| 20260504232012 | 65 | 68 | 2.6 | 8.7 | 0.00 | 0.00 | 0.00 | 43 | 1013.8 |
| 20260504231512 | 66 | 207 | 1.7 | 7.0 | 0.00 | 0.00 | 0.00 | 43 | 1013.7 |
| 20260504231015 | 66 | 154 | 2.6 | 11.3 | 0.00 | 0.00 | 0.00 | 42 | 1013.8 |